SAS63G EFHK-EKBI

Flight info

Callsign SAS63G
Flight time 0h 58m
Altitude 40000
Route NUNTO Y369 REKDO DCT KOSKA DCT MIKNA DCT ABINO DCT LOKSA
Aircraft A359/H-SDE2E3GHIJ3J4J5LM1ORWXY/LB1D1

Departure

Time 2026-04-23 18:43
Airport Helsinki Vantaa Airport (EFHK)

Arrival

Time 2026-04-23 19:41
Airport Billund Airport (EKBI)
Time Latitude Longitude Altitude Speed Heading
2026-04-23 17:58 60.31289 24.95643 169 ft 0 kts 320°
2026-04-23 18:26 60.31305 24.95615 168 ft 4 kts 320°
2026-04-23 18:26 60.31313 24.95603 168 ft 0 kts 320°
2026-04-23 18:28 60.31288 24.95641 168 ft 0 kts 317°
2026-04-23 18:30 60.31286 24.95644 169 ft 4 kts 318°
2026-04-23 18:30 60.31266 24.95681 169 ft 4 kts 318°
2026-04-23 18:30 60.31247 24.95718 169 ft 4 kts 307°
2026-04-23 18:31 60.31238 24.95757 170 ft 4 kts 243°
2026-04-23 18:31 60.31253 24.95794 170 ft 4 kts 227°
2026-04-23 18:31 60.31269 24.95830 170 ft 3 kts 227°
2026-04-23 18:31 60.31267 24.95820 170 ft 0 kts 227°
2026-04-23 18:34 60.31255 24.95794 170 ft 6 kts 229°
2026-04-23 18:34 60.31215 24.95705 169 ft 11 kts 226°
2026-04-23 18:34 60.31150 24.95583 169 ft 15 kts 218°
2026-04-23 18:34 60.31066 24.95425 167 ft 18 kts 229°
2026-04-23 18:35 60.31022 24.95327 167 ft 7 kts 227°
2026-04-23 18:35 60.30995 24.95222 166 ft 10 kts 271°
2026-04-23 18:35 60.31042 24.95110 164 ft 12 kts 321°
2026-04-23 18:35 60.31083 24.95047 164 ft 0 kts 326°
2026-04-23 18:36 60.31088 24.95040 164 ft 4 kts 326°
2026-04-23 18:36 60.31125 24.94992 163 ft 9 kts 328°
2026-04-23 18:36 60.31181 24.94897 162 ft 13 kts 318°
2026-04-23 18:37 60.31257 24.94760 161 ft 14 kts 318°
2026-04-23 18:37 60.31309 24.94636 160 ft 10 kts 284°
2026-04-23 18:37 60.31275 24.94520 159 ft 12 kts 232°
2026-04-23 18:37 60.31211 24.94383 158 ft 15 kts 226°
2026-04-23 18:38 60.31130 24.94206 157 ft 19 kts 227°
2026-04-23 18:38 60.31061 24.94051 156 ft 9 kts 234°
2026-04-23 18:38 60.31045 24.93933 156 ft 2 kts 250°
2026-04-23 18:38 60.31039 24.93874 155 ft 2 kts 283°
2026-04-23 18:39 60.31040 24.93872 155 ft 0 kts 290°
2026-04-23 18:41 60.31046 24.93850 155 ft 7 kts 296°
2026-04-23 18:42 60.31079 24.93763 10 ft 12 kts 320°
2026-04-23 18:42 60.31131 24.93686 152 ft 8 kts 334°
2026-04-23 18:42 60.31151 24.93698 153 ft 0 kts 43°
2026-04-23 18:43 60.31182 24.93759 154 ft 29 kts 44°
2026-04-23 18:43 60.31517 24.94480 158 ft 108 kts 47°
2026-04-23 18:43 60.32181 24.95904 226 ft 165 kts 41°
2026-04-23 18:43 60.32965 24.97526 1119 ft 158 kts 44°
2026-04-23 18:44 60.33691 24.99160 2117 ft 159 kts 45°
2026-04-23 18:44 60.34439 25.00983 2672 ft 180 kts 46°
2026-04-23 18:44 60.35315 25.03078 3074 ft 210 kts 45°
2026-04-23 18:44 60.36352 25.05382 3605 ft 233 kts 44°
2026-04-23 18:45 60.37463 25.07824 4525 ft 238 kts 44°
2026-04-23 18:45 60.38604 25.10314 5445 ft 245 kts 44°
2026-04-23 18:45 60.39874 25.12638 6347 ft 249 kts 32°
2026-04-23 18:45 60.41500 25.13642 7356 ft 244 kts
2026-04-23 18:46 60.43183 25.13964 8496 ft 244 kts
2026-04-23 18:46 60.44866 25.13605 9647 ft 245 kts 343°
2026-04-23 18:46 60.46319 25.11763 10561 ft 259 kts 319°
2026-04-23 18:46 60.47296 25.08444 11056 ft 295 kts 292°
2026-04-23 18:47 60.47328 25.04181 11823 ft 322 kts 265°
2026-04-23 18:47 60.46522 24.99807 12738 ft 340 kts 251°
2026-04-23 18:47 60.45320 24.95568 13593 ft 353 kts 245°
2026-04-23 18:47 60.43969 24.91354 14347 ft 361 kts 245°
2026-04-23 18:48 60.42590 24.87050 15154 ft 366 kts 246°
2026-04-23 18:48 60.41245 24.82651 15978 ft 369 kts 248°
2026-04-23 18:48 60.39942 24.78161 16804 ft 373 kts 250°
2026-04-23 18:48 60.38665 24.73573 17663 ft 377 kts 251°
2026-04-23 18:49 60.37394 24.68908 18485 ft 382 kts 251°
2026-04-23 18:49 60.36113 24.64159 19231 ft 387 kts 252°
2026-04-23 18:49 60.34833 24.59411 19961 ft 393 kts 252°
2026-04-23 18:49 60.33497 24.54479 20706 ft 398 kts 252°
2026-04-23 18:50 60.32610 24.51217 21190 ft 402 kts 252°
2026-04-23 18:50 60.30788 24.44550 22162 ft 409 kts 252°
2026-04-23 18:50 60.29397 24.39487 22875 ft 415 kts 252°
2026-04-23 18:50 60.27986 24.34364 23556 ft 420 kts 252°
2026-04-23 18:51 60.26573 24.29248 24123 ft 426 kts 252°
2026-04-23 18:51 60.25103 24.23937 24734 ft 431 kts 252°
2026-04-23 18:51 60.23654 24.18720 25328 ft 435 kts 252°
2026-04-23 18:51 60.22167 24.13378 25923 ft 439 kts 252°
2026-04-23 18:52 60.20669 24.08007 26532 ft 444 kts 252°
2026-04-23 18:52 60.19142 24.02542 27047 ft 448 kts 252°
2026-04-23 18:52 60.17615 23.97093 27724 ft 450 kts 252°
2026-04-23 18:52 60.16070 23.91596 28326 ft 454 kts 252°
2026-04-23 18:53 60.14510 23.86053 28873 ft 458 kts 252°
2026-04-23 18:53 60.12933 23.80456 29435 ft 463 kts 252°
2026-04-23 18:53 60.11337 23.74808 29984 ft 467 kts 252°
2026-04-23 18:53 60.09730 23.69134 30438 ft 470 kts 252°
2026-04-23 18:54 60.08102 23.63406 30820 ft 474 kts 252°
2026-04-23 18:54 60.06459 23.57645 31183 ft 478 kts 251°
2026-04-23 18:54 60.04803 23.51849 31589 ft 481 kts 251°
2026-04-23 18:54 60.03157 23.46106 31971 ft 484 kts 251°
2026-04-23 18:55 60.01473 23.40245 32345 ft 486 kts 251°
2026-04-23 18:55 59.99781 23.34371 32707 ft 490 kts 251°
2026-04-23 18:55 59.98073 23.28449 33098 ft 492 kts 251°
2026-04-23 18:55 59.96357 23.22520 33468 ft 495 kts 251°
2026-04-23 18:56 59.95213 23.18573 33702 ft 497 kts 250°
2026-04-23 18:56 59.92884 23.10562 34126 ft 501 kts 250°
2026-04-23 18:56 59.91134 23.04565 34439 ft 503 kts 250°
2026-04-23 18:56 59.89372 22.98545 34804 ft 500 kts 249°
2026-04-23 18:57 59.87626 22.92615 35394 ft 496 kts 249°
2026-04-23 18:57 59.85879 22.86688 35805 ft 495 kts 249°
2026-04-23 18:57 59.84138 22.80781 36143 ft 496 kts 249°
2026-04-23 18:57 59.82389 22.74852 36537 ft 496 kts 248°
2026-04-23 18:58 59.80638 22.68936 36931 ft 495 kts 248°
2026-04-23 18:58 59.78885 22.63029 37317 ft 495 kts 248°
2026-04-23 18:58 59.77132 22.57136 37701 ft 495 kts 248°
2026-04-23 18:58 59.75402 22.51340 38076 ft 494 kts 248°
2026-04-23 18:59 59.73652 22.45488 38432 ft 494 kts 247°
2026-04-23 18:59 59.71891 22.39619 38748 ft 493 kts 247°
2026-04-23 18:59 59.70137 22.33786 38995 ft 494 kts 247°
2026-04-23 18:59 59.68380 22.27952 39226 ft 494 kts 246°
2026-04-23 19:00 59.66616 22.22113 39465 ft 495 kts 246°
2026-04-23 19:00 59.64842 22.16255 39701 ft 495 kts 246°
2026-04-23 19:00 59.63072 22.10426 39875 ft 496 kts 246°
2026-04-23 19:01 59.59508 21.98734 39927 ft 497 kts 246°
2026-04-23 19:01 59.55934 21.87079 39939 ft 496 kts 246°
2026-04-23 19:02 59.52966 21.77440 39939 ft 495 kts 246°
2026-04-23 19:02 59.48797 21.63965 39944 ft 495 kts 245°
2026-04-23 19:03 59.45206 21.52417 39947 ft 495 kts 245°
2026-04-23 19:03 59.41604 21.40890 39952 ft 495 kts 245°
2026-04-23 19:04 59.37993 21.29394 39952 ft 495 kts 245°
2026-04-23 19:04 59.34366 21.17904 39955 ft 495 kts 245°
2026-04-23 19:05 59.30732 21.06447 39949 ft 495 kts 245°
2026-04-23 19:05 59.27114 20.95101 39963 ft 494 kts 245°
2026-04-23 19:06 59.18476 20.67918 39976 ft 488 kts 250°
2026-04-23 19:06 59.07118 20.21741 39980 ft 487 kts 252°
2026-04-23 19:07 58.95384 19.74528 39994 ft 486 kts 251°
2026-04-23 19:07 58.83444 19.27504 39978 ft 487 kts 251°
2026-04-23 19:08 58.71297 18.80664 40001 ft 488 kts 250°
2026-04-23 19:08 58.59003 18.34231 40009 ft 488 kts 250°
2026-04-23 19:09 58.46575 17.88245 40001 ft 486 kts 249°
2026-04-23 19:09 58.36128 17.50310 40013 ft 480 kts 249°
2026-04-23 19:10 58.23595 17.05588 40019 ft 479 kts 249°
2026-04-23 19:10 58.08910 16.54288 40032 ft 475 kts 248°
2026-04-23 19:11 57.98218 16.17637 40033 ft 475 kts 248°
2026-04-23 19:11 57.85461 15.74171 40048 ft 472 kts 248°
2026-04-23 19:12 57.72944 15.31292 40058 ft 473 kts 247°
2026-04-23 19:12 57.60259 14.88737 40071 ft 467 kts 246°
2026-04-23 19:13 57.47461 14.46574 40069 ft 465 kts 246°
2026-04-23 19:13 57.34656 14.05125 40089 ft 463 kts 245°
2026-04-23 19:14 57.21689 13.63889 40108 ft 460 kts 245°
2026-04-23 19:14 57.08670 13.23189 40110 ft 461 kts 244°
2026-04-23 19:15 56.95645 12.83164 40116 ft 458 kts 243°
2026-04-23 19:15 56.91133 12.69441 39732 ft 465 kts 243°
2026-04-23 19:15 56.89497 12.64484 39500 ft 466 kts 243°
2026-04-23 19:15 56.87819 12.59418 39265 ft 465 kts 243°
2026-04-23 19:16 56.86140 12.54365 38963 ft 463 kts 243°
2026-04-23 19:16 56.84474 12.49363 38377 ft 460 kts 244°
2026-04-23 19:16 56.82815 12.44390 37730 ft 457 kts 244°
2026-04-23 19:17 56.79517 12.34522 36397 ft 454 kts 243°
2026-04-23 19:17 56.77867 12.29599 35754 ft 453 kts 243°
2026-04-23 19:17 56.76228 12.24717 35245 ft 449 kts 243°
2026-04-23 19:17 56.74621 12.19948 34743 ft 446 kts 243°
2026-04-23 19:18 56.73002 12.15147 34235 ft 443 kts 243°
2026-04-23 19:18 56.71384 12.10360 33663 ft 441 kts 243°
2026-04-23 19:18 56.69785 12.05640 33132 ft 437 kts 243°
2026-04-23 19:18 56.68194 12.00954 32623 ft 433 kts 243°
2026-04-23 19:19 56.65044 11.91695 31619 ft 427 kts 243°
2026-04-23 19:19 56.63498 11.87166 31124 ft 424 kts 243°
2026-04-23 19:20 56.60402 11.78117 30112 ft 419 kts 243°
2026-04-23 19:20 56.58869 11.73646 29571 ft 416 kts 243°
2026-04-23 19:20 56.57343 11.69210 29084 ft 413 kts 243°
2026-04-23 19:20 56.55827 11.64808 28575 ft 411 kts 243°
2026-04-23 19:21 56.54314 11.60420 28081 ft 407 kts 243°
2026-04-23 19:21 56.51332 11.51802 27109 ft 401 kts 242°
2026-04-23 19:21 56.49855 11.47542 26602 ft 398 kts 242°
2026-04-23 19:22 56.48381 11.43299 26129 ft 396 kts 242°
2026-04-23 19:22 56.46915 11.39086 25616 ft 395 kts 242°
2026-04-23 19:22 56.43993 11.30711 24617 ft 392 kts 242°
2026-04-23 19:23 56.42558 11.26609 24137 ft 391 kts 242°
2026-04-23 19:23 56.41107 11.22470 23592 ft 390 kts 242°
2026-04-23 19:23 56.39658 11.18343 23062 ft 388 kts 242°
2026-04-23 19:24 56.36785 11.10191 22024 ft 382 kts 242°
2026-04-23 19:24 56.35362 11.06164 21522 ft 379 kts 242°
2026-04-23 19:24 56.32551 10.98220 20534 ft 373 kts 242°
2026-04-23 19:25 56.29767 10.90376 19531 ft 369 kts 242°
2026-04-23 19:25 56.27009 10.82630 18543 ft 366 kts 242°
2026-04-23 19:26 56.24275 10.74974 17519 ft 361 kts 242°
2026-04-23 19:26 56.22937 10.71239 17044 ft 357 kts 242°
2026-04-23 19:27 56.20274 10.63821 16082 ft 351 kts 242°
2026-04-23 19:27 56.16347 10.52918 14670 ft 342 kts 242°
2026-04-23 19:28 56.13775 10.45802 13717 ft 337 kts 242°
2026-04-23 19:28 56.11246 10.38837 12774 ft 329 kts 242°
2026-04-23 19:29 56.10006 10.35429 12330 ft 325 kts 242°
2026-04-23 19:29 56.07555 10.28695 11418 ft 320 kts 242°
2026-04-23 19:30 56.05164 10.22146 10738 ft 308 kts 242°
2026-04-23 19:30 56.04010 10.19010 10621 ft 294 kts 242°
2026-04-23 19:30 56.01836 10.13100 10113 ft 281 kts 242°
2026-04-23 19:31 56.00767 10.10176 9697 ft 283 kts 242°
2026-04-23 19:31 55.99674 10.07173 9419 ft 291 kts 242°
2026-04-23 19:31 55.98565 10.04140 9166 ft 292 kts 242°
2026-04-23 19:31 55.97448 10.01111 8787 ft 292 kts 242°
2026-04-23 19:32 55.96234 9.98209 8455 ft 290 kts 237°
2026-04-23 19:32 55.94981 9.95372 8161 ft 289 kts 237°
2026-04-23 19:32 55.93734 9.92567 7818 ft 288 kts 237°
2026-04-23 19:32 55.92492 9.89786 7479 ft 287 kts 237°
2026-04-23 19:33 55.91264 9.87046 7144 ft 285 kts 237°
2026-04-23 19:33 55.90033 9.84308 6795 ft 282 kts 237°
2026-04-23 19:33 55.87594 9.78883 6098 ft 279 kts 237°
2026-04-23 19:34 55.86381 9.76192 5749 ft 279 kts 236°
2026-04-23 19:34 55.85165 9.73501 5406 ft 278 kts 236°
2026-04-23 19:34 55.82755 9.68172 4717 ft 276 kts 235°
2026-04-23 19:35 55.81550 9.65513 4370 ft 275 kts 235°
2026-04-23 19:35 55.80350 9.62868 4037 ft 276 kts 235°
2026-04-23 19:35 55.79141 9.60204 3675 ft 276 kts 234°
2026-04-23 19:35 55.77933 9.57552 3336 ft 275 kts 235°
2026-04-23 19:36 55.76761 9.54986 3202 ft 260 kts 235°
2026-04-23 19:36 55.75668 9.52527 3097 ft 244 kts 240°
2026-04-23 19:36 55.75032 9.49939 3010 ft 222 kts 265°
2026-04-23 19:36 55.74948 9.47379 2959 ft 196 kts 278°
2026-04-23 19:37 55.74960 9.45048 2967 ft 184 kts 276°
2026-04-23 19:37 55.74918 9.42819 2961 ft 174 kts 272°
2026-04-23 19:37 55.74836 9.40757 2870 ft 165 kts 273°
2026-04-23 19:37 55.74773 9.38726 2631 ft 163 kts 274°
2026-04-23 19:38 55.74712 9.36746 2405 ft 159 kts 275°
2026-04-23 19:38 55.74650 9.34820 2178 ft 153 kts 276°
2026-04-23 19:38 55.74592 9.32992 1956 ft 144 kts 277°
2026-04-23 19:38 55.74538 9.31260 1774 ft 137 kts 277°
2026-04-23 19:39 55.74488 9.29640 1590 ft 126 kts 276°
2026-04-23 19:39 55.74441 9.28128 1434 ft 121 kts 275°
2026-04-23 19:39 55.74394 9.26628 1278 ft 122 kts 275°
2026-04-23 19:39 55.74348 9.25148 1090 ft 119 kts 273°
2026-04-23 19:40 55.74305 9.23717 896 ft 116 kts 272°
2026-04-23 19:40 55.74262 9.22324 736 ft 114 kts 270°
2026-04-23 19:40 55.74214 9.20933 596 ft 112 kts 268°
2026-04-23 19:40 55.74160 9.19519 445 ft 115 kts 270°
2026-04-23 19:41 55.74115 9.18113 310 ft 114 kts 269°
2026-04-23 19:41 55.74076 9.16761 253 ft 99 kts 269°
2026-04-23 19:41 55.74053 9.15711 249 ft 72 kts 266°
2026-04-23 19:41 55.74026 9.14962 252 ft 49 kts 266°
2026-04-23 19:42 55.74016 9.14665 252 ft 3 kts 266°
2026-04-23 19:42 55.74017 9.14578 251 ft 10 kts 279°
2026-04-23 19:42 55.74069 9.14497 249 ft 11 kts 352°
2026-04-23 19:42 55.74157 9.14489 248 ft 15 kts 358°
2026-04-23 19:43 55.74258 9.14480 248 ft 14 kts 356°
2026-04-23 19:43 55.74364 9.14469 247 ft 4 kts 356°
2026-04-23 19:43 55.74365 9.14469 247 ft 1 kts 356°
2026-04-23 19:43 55.74398 9.14465 247 ft 9 kts 356°
2026-04-23 19:44 55.74434 9.14493 247 ft 5 kts 74°
2026-04-23 19:44 55.74444 9.14625 247 ft 14 kts 86°
2026-04-23 19:44 55.74450 9.14818 247 ft 18 kts 86°
2026-04-23 19:44 55.74455 9.14976 247 ft 5 kts 87°
2026-04-23 19:45 55.74468 9.15023 247 ft 2 kts 28°
2026-04-23 19:45 55.74475 9.15020 247 ft 1 kts 356°
2026-04-23 19:45 55.74477 9.15020 247 ft 0 kts 356°
2026-04-23 19:45 55.74491 9.15019 247 ft 4 kts 357°
2026-04-23 19:46 55.74522 9.15016 247 ft 3 kts 356°
2026-04-23 19:46 55.74529 9.15015 247 ft 0 kts 356°